Weather Roundup
Issued by NWS

Home | Current Version | Previous Version | Graphics & Text | Print | Product List | Glossary Off
Versions: 1 2 3 4 5 6 7 8 9 10 11 12 13 14 15 16 17 18 19 20 21 22 23 24 25 26 27 28 29 30 31 32 33 34 35 36 37 38 39 40 41 42 43 44 45 46 47 48 49 50

917
NZUS93 KARX 130010
HRRWXR

CURRENT HOURLY OBSERVATIONS ACROSS
MUCH OF THE UPPER MISSISSIPPI VALLEY
NATIONAL WEATHER SERVICE LA CROSSE WI
600 PM CST FRI FEB 12 2016


...SOUTHEAST MINNESOTA...


CITY           SKY/WX    TMP DP  RH WIND       PRES   REMARKS
ROCHESTER      CLEAR      4  -8  57 NW15      30.45R WCI -14
ROCHESTER/MAYO FAIR       7  -9  47 NW13G21   30.46R WCI  -9
WINONA         CLEAR     10  -6  48 NW16G22   30.50R WCI  -7
AUSTIN         CLEAR      5  -6  61 NW12      30.48R WCI -11
ALBERT LEA     CLEAR      7  -6  56 NW8       30.49R WCI  -6
DODGE CENTER   PTCLDY     3  -9  55 NW15      30.45R WCI -15
PRESTON        CLEAR      5  -9  53 NW12      30.44R WCI -11
OWATONNA       CLEAR      5  -9  51 NW14      30.50R WCI -12
FARIBAULT      CLEAR      7  -9  47 NW10      30.51R WCI  -8
$$

...ELSEWHERE IN MINNESOTA...


CITY           SKY/WX    TMP DP  RH WIND       PRES   REMARKS
MINNEAPOLIS    CLEAR      7 -12  41 NW13      30.54R WCI  -9
INTNL FALLS    PTCLDY    -7 -19  56 NW10      30.51R WCI -25
DULUTH         PTCLDY    -1 -18  44 NW15G24   30.41R WCI -21
RED WING       PTCLDY     7 -15  36 NW7       30.51R WCI  -5
REDWOOD FALLS  CLEAR      5  -5  63 NW15G21   30.59R WCI -13
MANKATO        CLEAR      7  -6  56 NW14      30.53S WCI -10
WORTHINGTON    CLOUDY     1  -8  66 NW9       30.55S WCI -14
FAIRMONT       CLEAR      5  -4  66 NW16      30.53R WCI -14
$$

...SOUTHWEST WISCONSIN...


CITY           SKY/WX    TMP DP  RH WIND       PRES   REMARKS
LA CROSSE      CLEAR      8  -9  45 NW16      30.46R WCI -10
PRAIRIE DU CHI CLEAR     11  -7  44 NW14      30.46R WCI  -5
BOSCOBEL       CLEAR     13  -8  39 NW13G22   30.44R WCI  -2
LONE ROCK      CLEAR     12  -8  40 NW8       30.41R WCI   0
PLATTEVILLE    CLEAR     12  -2  53 NW12      30.38R WCI  -2
FORT MC COY    CLEAR      8 -10  43 NW16      30.44R WCI -10
CAMP DOUGLAS   CLEAR      6 -10  45 NW15      30.39R WCI -11
VIROQUA        FAIR       6 -10  46 N16       30.38R WCI -12
WIS DELLS      CLEAR      8 -11  41 NW12G23   30.35R WCI  -7
$$

...ELSEWHERE IN WISCONSIN...


CITY           SKY/WX    TMP DP  RH WIND       PRES   REMARKS
MILWAUKEE      PTCLDY    12  -6  44 NW16G29   30.29R WCI  -5
MADISON        CLEAR     10  -7  46 NW12G21   30.33R WCI  -5
GREEN BAY      CLEAR      5 -10  50 NW15G26   30.33R WCI -13
EAU CLAIRE     CLEAR      4 -15  41 NW9       30.46R WCI -10
BLACK RVR FLS  FAIR       7 -15  36 NW13G18   30.43R WCI  -9
MEDFORD        CLEAR      0 -13  54 NW10G16   30.33R WCI -16
WAUSAU         CLEAR      3 -12  49 N9        30.34R WCI -12
WIS RAPIDS     CLEAR      5 -13  43 NW15      30.38R WCI -13
MARSHFIELD     CLEAR      3 -14  45 NW15G22   30.35R WCI -16
RICE LAKE      CLEAR      3 -16  41 NW7       30.47R WCI -10
$$

...NORTHEAST IOWA...


CITY           SKY/WX    TMP DP  RH WIND       PRES   REMARKS
WATERLOO       CLEAR      9  -3  58 NW20      30.50R WCI -10
DUBUQUE        CLEAR     10  -2  58 NW18G26   30.39R WCI  -8
DECORAH        CLEAR      7  -9  47 N16G22    30.42R WCI -11
MASON CITY     CLEAR      6  -3  66 NW16      30.51R WCI -12
CHARLES CITY   CLEAR      7  -6  56 NW17G24   30.48R WCI -12
OELWEIN        CLEAR      7  -2  66 NW16G22   30.46R WCI -11
$$

...ELSEWHERE IN IOWA...


CITY           SKY/WX    TMP DP  RH WIND       PRES   REMARKS
DES MOINES     PTCLDY    13   0  56 NW18      30.54R WCI  -4
IOWA CITY      CLEAR     15  -1  49 NW15G25   30.49R WCI   0
FORT DODGE     CLOUDY     7  -6  56 N10G18    30.55S WCI  -8
MARSHALLTOWN   CLEAR      9   1  70 NW17      30.51R WCI  -9
CEDAR RAPIDS   CLEAR     12   1  61 NW18G29   30.46R WCI  -6
$$

...NORTHERN ILLINOIS...


CITY           SKY/WX    TMP DP  RH WIND       PRES   REMARKS
CHICAGO-OHARE  PTCLDY    17  -2  43 N20       30.26R WCI   1
CHICAGO-MIDWAY PTCLDY    19  -2  39 NW18G29   30.27R WCI   4
MOLINE         CLEAR     16   1  51 NW18G24   30.42R WCI   0
ROCKFORD       PTCLDY    17  -3  41 NW21G28   30.33R WCI   0
PEORIA         CLEAR     19  -1  41 NW12G25   30.38R WCI   7
$$

NOTE: "FAIR" INDICATES FEW OR NO CLOUDS BELOW 12,000 FEET WITH NO
SIGNIFICANT WEATHER AND/OR OBSTRUCTIONS TO VISIBILITY. WIND
SPEEDS ARE IN MILES-PER-HOUR.




USA.gov is the U.S. government's official web portal to all federal, state and local government web resources and services.